Location: Huesca
(42.1318°N, 0.4078°W)
Time: 01:21:03
(UTC+02:00)

CUTE 1.7 + AOD 2 - Visible Passes

Search period start: 17 May 2025 00:00
Search period end: 27 May 2025 00:00
Orbit: 548 x 559 km, 97.8° (Epoch: 16 May)

Date Brightness Start Highest point End Pass type
(mag) Time Alt. Az. Time Alt. Az. Time Alt. Az.
17 May ? 05:32:33 10° NNE 05:36:25 43° E 05:40:14 10° S visible
18 May ? 05:29:30 10° NNE 05:33:18 40° E 05:37:04 10° S visible
19 May ? 05:26:27 10° NNE 05:30:11 36° E 05:33:54 10° SSE visible
20 May ? 05:23:23 10° NNE 05:27:04 34° E 05:30:42 10° SSE visible
21 May ? 05:20:20 10° NNE 05:23:56 31° E 05:27:29 10° SSE visible
22 May ? 05:17:16 10° NE 05:20:46 28° E 05:24:14 10° SSE visible
23 May ? 05:14:11 10° NE 05:17:36 26° E 05:20:58 10° SSE visible
24 May ? 05:11:08 10° NE 05:14:26 24° E 05:17:42 10° SSE visible
25 May ? 05:08:04 10° NE 05:11:14 22° E 05:14:23 10° SSE visible
26 May ? 05:05:00 10° NE 05:08:02 20° E 05:11:03 10° SE visible
